sat.trackr.live / text

‹ back to catalog

STARLINK-5636

NORAD 55454 · 2023-015F

PAYLOAD ACTIVE UNKNOWN

§ Identity

Operator
Country
US
Launch date
2023-02-02
Launch site
AFETR
Launch vehicle
Mass (kg)
RCS (m²)

Purposes: comms

External: N2YO · Heavens-Above · Gunter

§ Orbital elements

Epoch: 2026-05-25T00:03:57.009024Z

Period
94.27 min
Inclination
43.0025°
Eccentricity
0.0001018
Mean motion
15.27575877 rev/d
Perigee alt
482.4 km
Apogee alt
483.8 km
Semi-major
6,861.2 km
B*
2.9095e-5
RAAN
257.6912°
Arg perigee
276.4494°
Mean anomaly
83.6242°
Rev number
18,239

§ Raw data

STARLINK-56361 55454U 23015F   26145.00274316  .00000539  00000+0  29095-4 0  99902 55454  43.0025 257.6912 0001018 276.4494  83.6242 15.27575877182399

JSON: /api/v1/satellites/55454 · /tle

For live sub-satellite position, see the globe view (requires WebGL).

§ Visibility from observer

Set your observer location to see the next 7 days of passes ≥ 10°. The values pass through the URL so the page stays shareable.

No JS? Fill the form by hand. The geolocation button needs JavaScript.